FW0019 Weather Reports


time (UTC)temp
F
wind
direction
speed
knots
gust
knots
rain 1hr
in
rain 24hr
in
rain mn
in
humidity
%
barometer
mb
20260507104546 43 298 1.7 3.5 0.00 0.01 0.00 89 879.8
20260507103055 43 302 2.6 4.3 0.00 0.01 0.00 89 879.9
20260507101538 43 297 1.7 3.5 0.00 0.01 0.00 89 879.9
20260507100031 44 292 2.6 5.2 0.00 0.01 0.00 88 880.0
20260507094531 44 118 2.6 4.3 0.00 0.01 0.00 86 880.1
20260507093025 45 118 1.7 3.5 0.00 0.01 0.00 85 880.1
20260507091534 46 118 0.9 2.6 0.00 0.01 0.00 84 880.1
20260507090019 46 118 0.0 2.6 0.00 0.01 0.00 82 880.2
20260507084534 48 118 0.0 0.0 0.00 0.01 0.00 81 880.4
20260507083012 49 118 0.0 0.0 0.00 0.01 0.00 78 880.4
20260507081510 50 118 0.0 1.7 0.00 0.01 0.00 76 880.4
20260507080004 52 118 0.0 1.7 0.00 0.01 0.00 71 880.5
20260507074500 54 118 0.9 4.3 0.00 0.01 0.00 61 880.5
20260507073102 53 150 3.5 5.2 0.00 0.01 0.00 61 880.5
20260507071605 53 142 3.5 5.2 0.00 0.01 0.00 64 880.6
20260507070105 52 138 1.7 5.2 0.00 0.01 0.01 68 880.7
20260507064557 52 136 1.7 7.0 0.00 0.01 0.01 71 880.7
20260507063053 52 154 0.0 0.0 0.00 0.01 0.01 74 880.7
20260507061553 53 154 0.0 4.3 0.00 0.01 0.01 69 880.8
20260507060050 53 135 2.6 4.3 0.00 0.01 0.01 69 880.7
20260507054609 54 140 2.6 6.1 0.00 0.01 0.01 67 880.8
20260507053102 54 100 3.5 5.2 0.00 0.01 0.01 68 880.8
20260507051556 53 114 3.5 7.0 0.00 0.01 0.01 72 880.8
20260507050054 53 142 2.6 5.2 0.00 0.01 0.01 76 880.7
20260507044554 52 158 1.7 4.3 0.00 0.01 0.01 78 880.8
20260507043047 53 134 2.6 5.2 0.00 0.01 0.01 77 880.7
20260507041559 53 136 2.6 4.3 0.00 0.01 0.01 75 880.7
20260507040045 54 113 3.5 7.8 0.00 0.01 0.01 73 880.6
20260507034546 53 140 2.6 7.0 0.00 0.01 0.01 75 880.4
20260507033045 53 119 3.5 6.1 0.00 0.01 0.01 77 880.3
20260507031545 53 109 1.7 4.3 0.00 0.01 0.01 78 880.3
20260507030044 53 101 2.6 6.1 0.00 0.01 0.01 80 880.2
20260507024547 53 110 2.6 6.1 0.00 0.01 0.01 86 880.1
20260507023043 55 114 2.6 5.2 0.00 0.01 0.01 83 880.0
20260507021549 57 108 2.6 5.2 0.00 0.01 0.01 80 880.0
20260507020059 58 128 4.3 7.8 0.00 0.01 0.01 78 879.9
20260507014601 59 119 4.3 8.7 0.00 0.01 0.01 76 879.8
20260507013047 60 145 5.2 7.8 0.00 0.01 0.01 74 879.8
20260507011551 60 100 6.1 10.4 0.00 0.01 0.01 72 879.8
20260507010045 61 167 5.2 8.7 0.00 0.01 0.01 71 879.8
20260507004540 61 132 6.1 10.4 0.00 0.01 0.01 69 879.8
20260507003039 61 123 5.2 12.2 0.00 0.01 0.01 69 879.8
20260507001555 62 109 6.1 12.2 0.00 0.01 0.01 67 879.7
20260507000048 62 129 6.1 11.3 0.00 0.01 0.01 66 879.5
20260506234549 62 136 7.0 13.9 0.00 0.01 0.01 65 879.4
20260506233041 62 164 7.8 14.8 0.00 0.01 0.01 64 879.4
20260506231538 63 132 7.8 13.9 0.00 0.01 0.01 62 879.5
20260506230037 63 133 7.8 11.3 0.00 0.01 0.01 58 879.5
20260506224537 63 150 3.5 9.6 0.00 0.01 0.01 57 879.5
20260506223038 63 98 5.2 10.4 0.00 0.01 0.01 57 879.8
20260506221545 63 155 7.0 11.3 0.00 0.01 0.01 59 879.8
20260506220042 63 135 5.2 13.0 0.00 0.01 0.01 60 880.0
20260506214535 62 129 6.1 13.0 0.00 0.01 0.01 62 879.9
20260506213042 63 115 7.0 11.3 0.00 0.01 0.01 60 880.0
20260506211542 62 131 6.1 13.0 0.00 0.01 0.01 63 880.2
20260506210043 62 131 5.2 13.9 0.00 0.01 0.01 63 880.1
20260506204534 62 103 7.0 11.3 0.00 0.01 0.01 62 880.2
20260506203034 62 132 7.0 10.4 0.00 0.01 0.01 64 880.2
20260506201537 62 107 7.0 10.4 0.00 0.01 0.01 63 880.3
20260506200033 61 76 6.1 9.6 0.00 0.02 0.01 62 880.4
20260506194531 61 132 5.2 11.3 0.00 0.02 0.01 65 880.4
20260506193044 61 114 5.2 9.6 0.00 0.02 0.01 65 880.5
20260506191530 61 119 7.0 10.4 0.00 0.02 0.01 66 880.5
20260506190030 62 153 6.1 9.6 0.00 0.08 0.01 63 880.5
20260506184531 62 107 1.7 10.4 0.00 0.08 0.01 52 880.6
20260506183028 62 136 4.3 7.8 0.00 0.08 0.01 60 880.6
20260506181536 60 243 2.6 8.7 0.00 0.08 0.01 49 880.7
20260506180021 59 167 3.5 8.7 0.00 0.16 0.01 62 880.7
20260506174519 58 166 4.3 8.7 0.00 0.16 0.01 61 880.7
20260506173019 57 137 5.2 8.7 0.00 0.16 0.01 66 880.6
20260506171517 57 141 4.3 8.7 0.00 0.16 0.01 67 880.6
20260506170015 57 165 4.3 7.8 0.00 0.21 0.01 68 880.4
20260506164513 57 144 5.2 8.7 0.00 0.21 0.01 61 880.3
20260506163015 56 155 3.5 7.0 0.00 0.21 0.01 62 880.3
20260506161506 55 105 3.5 6.1 0.00 0.21 0.01 61 880.1
20260506160003 54 157 3.5 6.1 0.00 0.25 0.01 67 880.0
20260506154613 53 136 3.5 6.1 0.00 0.25 0.01 70 880.0
20260506153056 52 147 3.5 6.1 0.00 0.25 0.01 71 879.9
20260506151555 52 103 4.3 6.1 0.01 0.25 0.01 69 879.9
20260506150054 51 132 3.5 7.0 0.01 0.32 0.01 70 879.9
20260506144554 50 108 3.5 8.7 0.01 0.32 0.01 71 879.7
20260506143045 47 140 2.6 6.1 0.01 0.32 0.01 81 879.6
20260506141541 45 296 0.0 3.5 0.00 0.31 0.00 86 879.3
20260506140038 44 269 0.9 3.5 0.00 0.39 0.00 89 879.5
20260506134533 41 78 0.0 1.7 0.00 0.39 0.00 90 879.3
20260506133038 41 153 1.7 6.1 0.00 0.39 0.00 90 879.1
20260506131534 41 163 1.7 7.0 0.00 0.39 0.00 89 879.0
20260506130029 41 86 4.3 9.6 0.00 0.50 0.00 89 878.7
20260506124527 41 80 5.2 8.7 0.00 0.50 0.00 88 878.6
20260506123026 41 94 5.2 8.7 0.00 0.50 0.00 90 878.5
20260506121525 41 82 4.3 8.7 0.00 0.50 0.00 89 878.4
20260506120025 41 84 5.2 9.6 0.00 0.53 0.00 90 878.4
20260506114527 41 90 3.5 7.8 0.00 0.53 0.00 90 878.4
20260506113023 41 130 5.2 12.2 0.00 0.53 0.00 91 878.3
20260506111521 41 88 4.3 8.7 0.00 0.53 0.00 91 878.2
20260506110020 41 127 3.5 7.8 0.00 0.57 0.00 92 878.3